Temp
3 3 3 3 4 4 4 4 5 5 4 4 4 4 4 4 4 4 3 3 4 4 3 4 6 6 6 6 6 5 5 4 4 6 7 6 6 6 7 6 4 5 6 6 7 8 8 5 5 7 7 3 3 3
3 3 3 3 3 4 4 4 4 4 4 4 4 4 4 4 4 4 3 2 3 4 2 3 4 7 7 8 6 4 5 4 5 6 6 5 6 5 5 6 4 6 6 5 6 7 6 5 7 5 3 4 3 3
3 3 3 3 3 3 3 3 4 4 4 4 4 4 4 4 3 3 3 2 2 1 1 1 3 4 4 7 6 5 3 4 3 4 4 4 5 4 4 4 4 4 3 5 6 5 4 4 4 4 2 3 2 3
3 3 3 3 3 3 3 3 3 3 4 4 4 4 4 4 3 4 3 2 2 1 2 2 1 2 1 3 4 4 5 3 3 3 3 4 5 4 4 4 4 3 2 3 3 4 4 3 2 3 2 2 1 1
3 3 3 3 3 3 3 3 3 3 3 3 3 3 3 4 3 3 3 2 2 3 3 2 -1 -0 0 0 1 2 3 1 2 2 3 4 3 3 -0 -0 -0 0 3 3 4 5 6 4 3 2 1 1 1 1
3 3 3 3 3 3 3 3 3 3 3 3 3 3 3 3 3 2 1 2 2 3 2 1 -1 -1 -1 -1 1 1 2 1 2 3 3 2 0 3 2 2 2 -0 1 3 4 3 2 1 0 1 1 1 0 0
2 3 3 3 3 3 3 3 3 3 3 3 3 3 3 3 3 1 1 2 2 2 1 1 0 -2 -2 -1 -1 -1 -1 0 1 2 2 1 0 1 2 0 1 -0 -0 1 1 0 1 1 1 -0 -0 -0 1 -0
2 2 3 3 2 2 2 2 1 2 2 2 2 3 3 3 2 2 0 2 2 1 1 2 -3 -3 -2 -1 -0 -1 -0 -0 -0 1 -1 -0 -1 0 0 -0 -0 -0 -1 -1 -1 -1 -1 -3 -3 -3 -2 -2 -3 -3
2 2 2 1 1 0 0 1 1 1 1 2 2 2 2 1 0 0 2 2 2 2 2 -2 -3 -3 -2 -2 -2 -2 -1 -1 -2 -2 -1 -0 -1 -0 1 -1 -2 -2 -1 -2 -3 -4 -4 -4 -4 -4 -4 -4 -4 -4
1 1 1 1 1 0 1 0 1 2 1 2 2 -0 -1 -1 -1 -0 1 0 -0 -1 -1 -1 -2 -2 -2 -2 -2 -2 -2 -0 -3 -2 -2 -1 -2 -1 -2 -3 -4 -4 -4 -4 -5 -4 -4 -4 -4 -5 -5 -5 -5 -5
1 1 1 1 -0 1 4 5 4 3 2 0 -2 -3 -3 -1 -1 -2 -2 -1 -3 -3 -1 -2 -3 -3 -3 -3 -2 -1 -2 -1 -1 -3 -2 -4 -4 -7 -10 -9 -10 -10 -7 -9 -8 -7 -5 -6 -7 -7 -6 -5 -5 -5
1 1 1 1 -0 0 2 1 1 2 -0 -1 -2 -2 -2 -4 -5 -2 -3 -4 -3 -3 -4 -5 -4 -3 -2 -2 -1 -1 -2 -3 -2 -9 -7 -7 -8 -6 -10 -11 -11 -11 -8 -8 -7 -8 -7 -7 -6 -7 -8 -7 -6 -5
1 1 1 1 0 1 -1 -0 0 0 2 1 -3 -4 -4 -9 -3 -2 -4 -7 -6 -5 -5 -5 -4 -3 -3 -3 -2 -2 -3 -2 -5 -7 -7 -9 -8 -8 -11 -12 -10 -10 -8 -8 -9 -7 -7 -7 -7 -6 -7 -7 -7 -7
0 0 -0 -0 0 0 0 0 1 2 2 -4 -4 -5 -5 -3 -7 -6 -6 -6 -5 -4 -4 -4 -4 -3 -4 -4 -4 -3 -5 -6 -9 -11 -9 -10 -9 -10 -11 -10 -10 -9 -10 -10 -10 -7 -7 -7 -7 -6 -7 -7 -7 -8
2 2 1 -0 1 1 1 1 1 1 -4 -6 -5 -5 -7 -7 -9 -8 -8 -5 -5 -4 -4 -4 -5 -4 -5 -6 -6 -5 -6 -8 -9 -9 -9 -8 -8 -11 -9 -7 -10 -10 -12 -14 -10 -10 -9 -8 -9 -9 -8 -7 -8 -8
2 2 1 -0 0 1 1 1 -0 -3 -10 -10 -10 -10 -7 -7 -6 -7 -6 -7 -7 -7 -6 -6 -7 -5 -7 -6 -7 -5 -6 -8 -7 -9 -8 -9 -8 -8 -8 -8 -9 -10 -10 -10 -9 -9 -9 -9 -10 -9 -9 -9 -9 -10
2 -0 -1 0 1 0 0 -1 -4 -14 -14 -13 -11 -8 -11 -12 -12 -10 -10 -7 -10 -9 -9 -13 -10 -9 -14 -13 -11 -13 -12 -10 -9 -9 -8 -10 -11 -11 -12 -10 -9 -9 -9 -9 -9 -10 -10 -9 -10 -11 -14 -10 -10 -10
-0 -1 0 1 1 1 -3 -6 -13 -14 -12 -12 -9 -9 -8 -11 -9 -9 -8 -9 -11 -15 -14 -12 -14 -14 -14 -11 -11 -11 -10 -11 -10 -10 -11 -10 -13 -11 -10 -10 -10 -10 -10 -10 -10 -10 -11 -11 -13 -12 -12 -11 -11 -11
-1 -0 0 1 1 -2 -12 -12 -12 -14 -13 -11 -9 -9 -8 -9 -10 -11 -11 -12 -15 -15 -15 -17 -14 -15 -11 -11 -11 -12 -14 -13 -13 -11 -12 -11 -11 -12 -11 -11 -11 -11 -11 -11 -11 -11 -11 -11 -11 -11 -11 -11 -12 -11
0 0 -0 -1 -0 -6 -13 -15 -11 -14 -15 -12 -13 -14 -13 -12 -13 -17 -18 -16 -16 -18 -13 -15 -11 -10 -11 -13 -11 -10 -11 -12 -14 -12 -11 -11 -11 -11 -12 -12 -11 -11 -11 -11 -11 -10 -10 -11 -11 -12 -12 -12 -12 -12
0 -0 -0 -0 -4 -9 -16 -21 -15 -16 -16 -15 -18 -16 -16 -18 -19 -19 -19 -17 -15 -18 -14 -12 -12 -14 -12 -12 -12 -13 -13 -13 -14 -14 -12 -12 -11 -11 -11 -11 -11 -12 -12 -11 -11 -11 -10 -10 -10 -10 -11 -11 -11 -11
-1 -1 -2 -4 -11 -13 -16 -15 -16 -15 -16 -18 -19 -20 -21 -18 -21 -20 -20 -16 -16 -14 -13 -15 -15 -15 -13 -15 -13 -13 -13 -13 -14 -15 -12 -12 -12 -12 -11 -11 -12 -12 -11 -12 -12 -12 -12 -11 -11 -11 -11 -11 -10 -10
-2 -2 -5 -8 -11 -13 -14 -16 -15 -18 -13 -16 -21 -17 -19 -21 -20 -19 -17 -18 -14 -13 -12 -13 -12 -13 -15 -13 -12 -12 -11 -12 -13 -13 -13 -13 -12 -12 -12 -12 -12 -12 -12 -11 -11 -11 -11 -10 -10 -9 -9 -9 -9 -9
-4 -13 -16 -18 -16 -14 -19 -18 -19 -18 -20 -18 -19 -15 -17 -20 -19 -18 -15 -14 -12 -12 -15 -15 -14 -15 -13 -13 -15 -12 -12 -12 -12 -12 -12 -12 -12 -11 -11 -11 -11 -11 -11 -11 -11 -11 -11 -11 -10 -10 -9 -9 -9 -9
-10 -14 -15 -15 -21 -14 -16 -16 -18 -15 -16 -21 -17 -16 -18 -21 -18 -19 -15 -14 -16 -16 -15 -13 -12 -13 -13 -12 -12 -11 -11 -11 -11 -11 -11 -11 -11 -11 -11 -11 -11 -11 -10 -10 -10 -10 -10 -10 -10 -9 -9 -9 -9 -9
-14 -17 -16 -17 -16 -14 -15 -14 -17 -17 -18 -16 -17 -19 -20 -17 -14 -12 -11 -12 -12 -12 -12 -13 -13 -13 -12 -12 -12 -12 -12 -12 -12 -11 -11 -11 -11 -11 -10 -10 -10 -10 -9 -10 -10 -9 -9 -9 -9 -9 -9 -9 -8 -9
-15 -17 -16 -12 -12 -13 -14 -14 -15 -16 -19 -16 -18 -15 -15 -13 -12 -11 -12 -12 -12 -12 -13 -13 -14 -14 -13 -13 -12 -12 -12 -12 -12 -11 -11 -11 -10 -10 -10 -10 -10 -10 -10 -9 -9 -10 -10 -9 -10 -10 -10 -9 -9 -9
-18 -17 -15 -17 -18 -19 -18 -19 -18 -18 -17 -15 -14 -13 -12 -11 -11 -12 -12 -12 -13 -14 -14 -14 -13 -13 -13 -13 -13 -13 -12 -11 -11 -10 -10 -10 -10 -10 -10 -10 -10 -10 -9 -9 -10 -10 -10 -10 -11 -11 -11 -11 -10 -9
-16 -15 -15 -17 -20 -19 -19 -18 -17 -15 -15 -16 -15 -11 -12 -11 -13 -13 -13 -13 -14 -14 -14 -14 -13 -13 -13 -13 -12 -12 -12 -11 -11 -10 -10 -10 -10 -10 -11 -10 -10 -10 -10 -9 -9 -10 -10 -10 -11 -11 -11 -11 -11 -10
-17 -17 -17 -21 -17 -16 -19 -20 -20 -20 -18 -16 -16 -14 -12 -12 -13 -13 -13 -14 -14 -14 -15 -14 -14 -14 -14 -13 -13 -12 -11 -11 -10 -10 -10 -10 -11 -11 -11 -11 -11 -11 -10 -10 -10 -10 -10 -10 -11 -11 -11 -12 -12 -12
-18 -19 -19 -19 -18 -20 -21 -21 -21 -18 -21 -23 -20 -19 -15 -14 -13 -13 -13 -14 -14 -14 -15 -14 -15 -14 -14 -14 -13 -13 -12 -10 -10 -9 -10 -10 -11 -11 -11 -11 -11 -11 -11 -11 -11 -11 -11 -11 -11 -11 -11 -11 -11 -12
-19 -22 -19 -15 -18 -22 -24 -23 -23 -22 -23 -22 -20 -22 -19 -15 -13 -13 -13 -14 -15 -15 -15 -15 -15 -15 -13 -12 -12 -12 -11 -10 -9 -7 -8 -9 -10 -10 -11 -11 -11 -11 -11 -11 -12 -12 -11 -11 -11 -11 -12 -12 -12 -12
-25 -25 -25 -22 -21 -20 -23 -22 -21 -20 -22 -22 -21 -21 -21 -18 -14 -13 -13 -14 -15 -15 -16 -15 -14 -12 -12 -11 -12 -11 -10 -9 -9 -8 -8 -8 -9 -10 -10 -10 -11 -11 -11 -12 -12 -12 -12 -12 -13 -13 -13 -13 -13 -13
Height
743 745 750 751 754 755 758 760 763 764 768 770 771 772 775 776 776 779 778 782 782 777 775 776 776 773 775 775 777 784 788 787 792 781 782 784 780 783 784 781 793 790 793 790 785 779 773 772 778 775 766 774 773 776
737 739 743 745 748 750 751 753 757 759 761 765 765 768 769 769 772 773 771 775 776 773 772 768 769 767 766 768 770 776 774 778 775 776 777 780 774 779 778 777 783 782 775 781 779 767 766 766 762 764 766 767 771 772
731 734 737 740 741 742 746 749 753 753 753 758 762 763 762 765 765 767 767 770 770 769 766 765 763 762 762 760 763 770 771 770 771 771 776 776 774 781 782 782 781 777 774 775 771 763 766 765 765 765 766 765 767 771
726 728 731 733 734 737 739 742 744 747 748 752 755 754 758 759 759 760 761 762 765 766 765 756 753 760 759 756 757 760 760 764 767 769 772 772 773 775 774 771 772 769 773 771 772 763 763 763 763 760 763 765 767 769
720 722 724 726 728 730 732 734 736 739 742 746 748 750 753 754 753 754 755 757 758 762 757 756 755 758 756 756 753 755 757 757 757 763 767 766 768 770 783 783 782 769 762 763 758 750 749 754 754 757 761 761 764 767
715 716 718 720 721 723 724 726 729 731 734 738 740 743 746 749 751 752 750 751 751 753 757 757 758 754 754 754 755 754 754 756 755 755 756 760 762 761 768 765 750 752 749 745 746 749 752 755 755 755 756 759 761 766
709 711 712 714 715 715 715 717 719 721 725 729 733 737 740 744 747 748 750 743 744 751 755 753 754 756 755 754 757 757 757 756 756 754 759 760 763 761 759 764 744 745 746 748 748 750 753 754 753 754 756 760 764 767
704 705 706 707 706 704 704 704 704 707 712 719 724 730 735 739 743 744 741 742 744 745 746 742 757 757 755 756 758 759 759 758 758 757 763 763 767 762 758 745 745 744 747 749 750 750 751 753 755 758 759 763 767 772
701 701 700 699 696 694 692 690 688 690 695 705 717 725 731 734 737 735 737 740 743 748 742 746 757 758 754 757 759 759 759 761 763 763 762 761 761 756 740 743 745 745 744 748 752 753 755 757 760 762 764 767 770 774
699 700 699 698 693 685 676 667 660 662 673 690 715 717 726 729 732 736 737 739 739 739 742 742 750 751 753 755 758 764 762 758 767 761 762 758 753 744 745 747 746 744 745 748 755 759 760 761 763 765 767 770 772 774
703 702 698 695 689 675 658 652 657 665 676 691 706 719 727 728 732 737 738 736 742 744 739 743 746 751 753 759 758 756 756 756 758 766 763 767 758 756 754 751 749 746 746 749 750 752 754 758 764 767 769 771 773 774
706 704 702 698 690 679 672 668 670 675 684 696 703 719 728 734 739 735 740 743 742 742 742 747 748 747 748 748 749 752 754 761 759 779 781 775 765 753 755 754 750 748 749 752 752 754 758 761 764 767 769 770 772 773
708 707 704 702 698 693 689 688 689 694 696 701 711 726 734 747 737 733 744 754 749 742 743 744 745 746 749 750 751 753 756 756 767 778 774 772 760 757 759 756 754 753 753 755 757 759 761 763 765 767 768 769 770 771
711 709 706 705 704 702 701 701 700 700 701 714 723 736 740 732 748 745 745 744 742 739 739 740 745 745 750 753 754 755 766 768 790 804 784 773 763 761 760 757 756 757 758 759 760 761 762 763 763 764 765 766 766 765
713 711 709 707 705 704 702 701 702 701 710 727 729 738 745 746 749 746 745 741 743 741 740 743 748 749 755 758 764 765 770 781 784 780 770 764 761 761 758 757 759 759 760 760 760 760 760 761 761 760 760 760 760 759
713 713 711 711 708 705 704 704 704 709 724 738 746 753 745 744 743 744 743 746 746 746 746 747 754 754 761 761 765 758 765 773 765 769 764 763 761 761 761 760 759 758 758 757 757 757 756 756 756 754 752 752 751 752
715 716 714 712 710 708 705 706 713 729 743 753 756 748 755 758 760 755 754 750 749 751 756 768 769 770 788 793 785 787 787 775 769 766 764 764 764 762 760 758 756 755 754 753 752 751 751 749 749 748 746 743 743 742
718 718 715 712 709 708 711 716 729 745 757 759 756 756 754 757 756 755 753 752 752 761 765 768 774 789 794 783 781 777 772 771 768 766 764 761 759 758 756 754 752 751 749 748 746 745 743 743 742 740 738 736 735 733
721 719 715 712 710 711 723 734 737 762 765 760 757 757 756 758 760 760 759 758 758 758 763 775 782 794 779 777 778 776 776 774 771 764 761 757 755 753 751 749 748 746 744 742 740 738 736 735 733 732 730 729 727 725
722 720 717 714 712 717 737 748 746 756 772 766 765 768 766 766 766 767 766 764 763 769 773 784 778 775 778 777 773 770 768 766 766 762 756 751 749 748 746 745 742 739 737 735 733 731 729 726 724 722 720 719 719 715
722 721 718 716 719 727 748 761 762 765 768 772 775 773 775 773 777 778 776 770 772 789 785 780 779 777 774 771 769 766 763 762 762 760 753 748 744 743 739 737 735 733 731 728 725 722 720 717 714 713 712 710 708 707
725 723 722 723 731 741 755 762 766 767 771 779 780 783 790 788 793 789 783 780 788 785 782 782 779 775 771 767 763 761 758 756 754 751 748 744 740 737 733 730 729 726 723 720 718 715 711 709 707 705 703 701 700 699
727 727 729 733 742 753 771 765 770 777 776 783 789 787 794 797 791 785 789 792 785 780 779 778 775 772 769 763 759 756 754 751 748 745 741 738 734 730 727 724 721 719 715 711 709 706 703 701 699 697 695 693 692 690
732 739 754 763 764 773 775 780 781 784 789 792 798 791 796 800 791 792 794 789 782 779 779 776 774 769 763 760 757 752 749 747 743 738 735 731 727 722 720 716 714 711 707 703 701 698 695 693 691 689 687 685 684 683
747 769 771 778 782 776 786 789 792 784 796 809 799 796 800 801 801 807 797 789 786 782 778 774 771 769 766 759 753 749 745 742 738 733 727 725 721 716 713 709 706 702 700 697 694 691 688 686 684 682 680 678 677 677
779 788 786 790 788 782 791 791 799 800 803 799 801 801 803 798 793 792 787 786 783 780 777 774 771 766 761 758 752 746 740 737 734 729 722 719 715 712 708 704 700 695 693 690 688 685 682 680 679 677 675 674 673 674
790 796 789 784 784 786 788 790 791 796 809 803 805 796 796 794 791 788 786 785 783 780 776 773 769 766 761 754 748 743 738 733 729 724 717 713 710 707 705 702 697 693 688 685 683 681 680 679 678 677 676 674 673 673
796 795 795 796 797 798 802 806 807 808 804 798 795 795 791 789 789 789 788 785 782 777 772 768 765 762 757 751 746 740 734 729 724 719 714 711 708 705 702 698 694 690 686 683 680 679 679 678 678 678 678 677 676 675
796 794 794 800 804 803 807 807 805 800 800 801 800 789 790 790 790 790 788 784 779 775 771 767 762 758 753 748 743 738 733 727 723 718 714 711 707 704 701 697 693 690 686 684 682 681 681 681 681 681 681 681 681 680
802 799 799 810 803 803 807 807 807 805 802 801 801 797 793 791 790 790 788 783 779 776 773 769 764 760 755 750 744 736 731 727 724 721 717 713 710 706 702 698 695 692 689 687 686 686 686 685 686 686 686 686 687 688
802 801 804 806 806 808 808 806 805 803 803 804 802 802 797 794 791 790 788 785 781 776 772 767 763 759 756 751 747 742 734 727 724 721 718 715 711 708 705 701 699 696 694 692 692 691 691 691 692 692 693 694 695 696
804 812 808 801 807 809 807 808 809 808 808 806 804 804 799 796 792 791 789 785 780 776 773 770 765 760 756 753 749 745 741 734 727 723 720 717 714 712 709 707 704 702 701 699 699 698 698 698 699 700 701 702 704 705
815 816 817 813 811 810 811 811 810 809 810 811 808 807 806 803 797 793 791 789 785 781 776 770 766 762 758 755 751 746 741 737 733 728 726 723 720 717 715 713 711 710 709 708 708 707 707 708 708 710 711 712 713 714
Wind_Speed
22 22 23 23 23 22 22 22 20 19 19 18 17 18 20 20 21 24 18 19 16 4 4 5 10 4 2 7 6 4 3 2 3 6 4 3 5 6 4 6 7 8 7 5 4 7 11 5 4 7 3 3 5 5
22 22 23 23 24 23 22 21 20 19 18 18 18 18 18 19 21 20 12 18 17 8 2 6 21 33 28 12 6 6 2 5 5 4 3 2 3 3 4 5 1 5 7 5 8 6 1 7 3 3 5 5 5 5
22 23 23 24 23 24 24 23 23 21 20 20 21 20 19 19 19 21 18 16 7 1 3 2 6 17 20 23 13 5 3 4 3 2 2 2 3 3 3 4 2 4 3 3 2 4 6 7 4 3 6 4 4 2
24 24 23 23 24 25 26 25 24 24 23 23 22 20 21 21 20 20 17 18 13 2 2 3 2 6 11 16 17 15 4 5 5 2 3 2 2 4 3 2 5 4 6 6 5 4 4 5 7 6 6 5 6 5
24 24 23 24 24 25 25 25 26 26 25 24 23 22 21 21 21 21 23 19 19 5 2 2 2 5 8 9 10 8 10 6 2 3 3 4 2 3 1 1 4 6 8 5 6 6 4 5 4 7 9 8 7 7
25 25 25 25 25 25 26 27 27 28 28 27 26 23 21 20 19 12 3 17 24 22 1 2 4 1 1 3 5 1 2 1 2 3 2 2 1 4 4 4 6 6 5 4 4 2 4 1 3 3 7 7 7 8
24 24 24 25 26 27 29 31 31 30 29 27 26 24 23 21 18 5 3 4 15 21 2 2 2 1 0 1 1 1 2 0 0 1 3 2 2 3 2 4 4 7 6 5 3 5 1 2 2 4 5 7 11 12
20 21 22 24 25 26 26 28 30 31 31 28 25 25 22 20 16 13 19 6 8 0 2 3 1 1 5 2 2 0 1 1 0 0 1 2 1 1 5 4 4 2 5 4 5 1 2 6 6 6 9 9 8 7
12 13 12 17 22 22 27 34 39 41 37 40 28 25 14 9 6 4 7 13 13 5 2 2 4 4 4 1 1 1 1 1 0 2 2 3 2 5 4 6 6 6 5 6 5 6 7 7 7 6 6 6 7 5
5 1 9 12 19 24 29 37 46 42 43 41 29 6 3 5 10 11 5 2 2 2 2 3 3 1 3 2 1 2 2 2 2 1 1 3 3 3 2 3 2 3 6 9 6 4 5 4 6 5 5 4 5 4
14 13 13 13 20 15 20 8 24 39 39 10 3 3 7 14 4 1 3 3 0 1 1 2 2 3 1 3 2 2 2 2 2 2 2 2 3 4 4 5 4 3 4 3 3 3 5 6 6 5 4 4 4 2
14 16 16 19 29 32 25 30 29 21 10 12 20 13 6 3 2 3 1 0 2 3 2 4 3 2 2 1 2 2 2 2 3 2 2 3 3 3 3 3 5 4 6 7 7 8 10 10 9 6 4 3 3 5
15 16 16 17 22 29 31 34 36 34 25 9 7 4 1 3 3 4 5 3 1 2 2 2 2 2 2 1 2 2 3 2 2 2 3 4 3 3 2 2 4 6 9 8 6 8 8 6 4 4 4 5 8 11
13 16 19 15 8 5 6 5 9 7 5 4 3 4 0 1 1 2 2 2 1 1 3 3 2 2 1 2 1 3 2 2 2 1 4 2 3 4 3 1 2 2 3 3 3 4 4 4 6 8 11 12 13 17
10 13 18 18 17 9 8 6 5 6 6 3 3 2 1 1 2 2 1 0 3 1 2 3 3 2 2 3 2 3 2 2 4 4 2 2 4 3 1 2 2 1 1 3 3 4 8 9 11 16 19 19 19 20
10 3 16 16 14 15 2 5 8 5 5 3 5 3 1 1 2 2 3 2 3 1 1 2 3 3 2 2 2 3 5 4 2 2 2 2 3 4 4 4 4 5 7 10 12 14 16 16 15 18 22 21 21 21
6 7 16 13 8 10 4 5 6 6 4 4 3 2 2 2 2 1 1 2 2 2 1 2 4 3 1 3 1 2 4 2 2 2 1 2 3 5 4 6 8 10 11 14 16 16 17 20 18 17 11 21 22 23
7 14 16 12 8 3 6 9 5 4 5 2 3 2 2 1 1 2 2 4 3 2 2 2 4 4 3 3 2 2 2 2 2 3 3 5 3 10 11 9 13 13 14 16 19 22 22 20 15 15 19 23 24 23
12 13 16 13 5 5 4 6 6 4 0 2 1 2 2 2 2 2 3 5 3 2 4 3 5 2 1 1 2 2 2 2 3 5 5 11 15 14 14 15 16 16 16 17 17 15 17 20 21 20 19 18 17 18
8 12 12 15 4 5 5 3 4 4 2 1 2 3 1 1 2 2 2 3 2 2 5 4 1 0 1 2 2 5 5 4 2 7 7 5 13 14 15 15 14 17 16 17 18 20 17 17 18 20 21 19 16 18
6 9 11 7 7 12 4 2 4 2 1 3 2 2 1 2 3 4 3 4 4 2 2 1 2 3 9 12 15 13 10 8 4 4 7 8 14 14 15 15 17 16 13 13 10 15 18 16 20 19 19 20 21 22
7 8 5 8 6 5 4 7 3 1 2 1 2 2 3 3 3 3 3 4 2 1 1 1 3 3 5 5 10 15 17 18 18 15 18 18 7 7 8 13 11 9 13 15 16 15 18 20 20 19 19 20 20 19
5 5 6 10 6 6 2 5 4 5 3 3 2 3 3 3 2 3 2 2 2 3 3 3 10 14 12 19 17 18 15 14 9 11 14 14 16 18 17 18 17 14 9 17 18 19 19 21 21 20 18 18 17 17
7 7 5 4 4 0 2 5 2 3 3 4 3 2 4 2 4 3 2 2 2 3 2 6 10 6 7 8 3 9 14 15 15 16 16 15 8 14 16 17 18 19 20 22 20 19 19 19 20 18 18 17 16 15
6 7 5 6 3 5 6 5 5 4 3 2 3 3 3 3 3 3 0 3 2 2 3 9 8 4 5 6 9 15 18 14 12 9 20 16 17 17 16 16 18 20 21 17 16 16 17 17 17 16 15 13 12 12
6 4 4 1 3 3 1 3 3 1 1 3 1 2 2 2 3 1 2 2 2 3 6 8 7 7 7 11 9 11 20 22 19 13 20 17 15 13 8 7 7 14 16 16 16 15 14 13 10 9 7 8 8 6
5 3 3 3 1 1 3 2 2 3 3 2 3 4 2 3 2 2 2 2 4 15 17 17 14 12 10 18 22 22 24 24 19 20 25 22 16 13 12 10 8 16 23 19 15 11 9 5 1 1 3 5 2 3
2 3 3 4 3 1 4 2 2 1 2 2 1 3 2 1 0 1 1 14 18 20 19 18 16 16 18 22 23 24 23 23 23 17 15 11 12 11 16 16 14 14 11 11 7 3 1 3 5 7 9 10 12 14
3 3 1 4 3 4 2 2 1 1 2 1 1 1 1 1 1 3 6 19 20 17 14 16 19 21 21 20 18 19 20 19 14 11 9 7 6 10 20 15 13 12 12 5 5 6 6 8 11 14 16 17 17 18
3 3 2 2 3 2 2 0 1 2 2 1 2 2 2 1 2 3 18 19 17 15 17 18 18 17 15 16 20 27 26 21 14 13 5 6 9 17 16 14 13 11 9 7 12 14 13 15 15 17 19 19 20 20
2 2 3 2 1 2 2 3 3 2 2 2 2 1 2 2 3 3 16 21 19 18 16 17 19 19 16 18 18 16 14 22 28 19 13 11 12 13 13 13 13 15 16 16 16 16 16 16 17 18 18 18 19 20
3 2 2 2 2 3 3 2 1 1 3 2 2 2 3 1 2 4 14 25 19 18 20 20 18 21 24 24 24 21 18 22 30 15 16 15 13 12 13 14 15 16 19 21 21 21 22 21 21 22 23 23 23 24
2 2 2 2 3 3 3 2 4 3 3 2 2 1 1 1 1 3 11 21 20 19 21 25 23 19 19 19 21 22 19 18 20 24 15 15 14 14 14 16 17 19 22 22 22 24 25 25 25 25 25 26 26 27
Wind_Direction
246 244 243 240 239 237 240 239 237 242 245 247 252 258 261 262 253 235 248 259 245 258 240 227 244 190 184 192 193 152 113 184 171 215 221 214 199 200 195 201 181 179 180 206 229 254 266 129 77 178 193 163 163 160
244 244 246 242 239 241 241 246 245 244 244 250 254 257 263 266 263 239 234 252 263 237 287 253 247 235 228 219 215 183 232 173 184 197 185 187 223 158 182 239 89 216 195 185 194 213 348 199 199 196 172 160 191 173
242 244 245 244 243 241 241 241 243 244 248 250 252 254 263 269 263 241 231 238 238 319 251 197 213 250 236 226 222 210 188 191 192 192 156 169 195 155 190 242 227 257 163 221 128 213 215 215 224 191 184 189 171 193
241 243 246 247 246 245 243 243 244 246 248 249 252 254 259 263 265 247 229 223 212 139 259 256 357 266 277 244 225 223 180 145 130 128 194 156 188 178 217 271 212 191 140 195 257 277 302 260 232 199 187 168 159 147
245 248 251 251 249 250 248 247 248 249 250 251 252 254 256 264 267 264 241 228 214 196 279 298 353 237 255 281 242 221 185 151 158 152 198 201 164 141 174 130 242 186 192 179 223 203 189 227 230 175 178 186 168 148
246 249 252 255 255 253 253 252 252 252 252 252 252 251 250 256 262 258 216 216 222 207 182 267 0 276 307 323 270 226 160 126 164 188 165 215 103 162 191 215 247 199 203 189 228 178 186 120 353 182 182 176 162 157
245 248 252 257 259 259 259 259 256 253 250 248 245 244 245 247 243 203 244 125 188 180 175 230 227 325 209 24 9 45 24 331 181 154 205 197 191 192 209 228 205 205 206 206 185 125 140 174 188 103 120 131 138 115
249 254 257 263 265 262 260 258 256 249 241 237 244 238 237 236 239 232 235 219 150 321 220 208 216 93 184 171 180 278 150 127 239 79 87 170 149 231 248 232 229 136 130 134 150 112 156 117 94 87 103 113 105 106
267 278 259 252 260 274 274 268 261 254 243 230 233 223 215 205 193 208 212 215 217 202 276 92 167 208 152 122 94 77 98 172 114 208 196 160 170 224 240 217 202 188 166 167 114 105 101 106 113 100 98 104 118 121
165 50 356 321 307 292 283 271 270 257 242 219 188 142 146 197 141 137 121 182 186 159 164 170 149 179 125 137 137 114 212 206 209 207 123 223 253 285 317 320 319 196 156 135 109 116 121 126 137 129 117 106 111 122
66 32 6 35 355 346 25 157 134 130 130 113 109 86 104 134 103 64 209 151 31 323 180 103 133 142 238 130 166 204 170 153 191 220 203 248 266 253 303 312 321 284 153 115 132 112 110 130 144 137 135 138 143 165
60 54 56 47 41 47 66 87 108 106 96 111 110 105 91 46 59 114 28 70 164 214 160 146 179 140 141 165 126 159 157 142 221 102 83 264 256 293 343 350 10 52 115 101 106 109 113 121 137 139 160 190 236 275
65 59 61 63 59 60 64 74 89 103 106 86 59 66 80 292 84 165 197 276 260 178 175 153 111 114 109 67 90 129 157 155 94 86 234 234 292 330 318 9 49 56 92 102 95 109 120 127 151 193 224 253 272 272
73 59 54 53 59 58 37 55 86 73 80 66 74 65 68 77 306 172 168 164 125 181 137 103 84 92 112 81 33 116 56 96 71 358 241 259 283 300 288 29 71 78 85 118 142 156 174 209 248 265 265 274 273 271
55 42 43 28 24 35 48 71 118 81 68 76 41 88 47 236 229 238 205 286 13 13 108 110 79 78 53 104 39 110 72 252 202 228 237 301 335 345 31 26 26 335 269 267 252 234 252 266 269 279 283 283 276 271
355 7 18 11 5 14 73 80 57 66 58 79 50 69 282 63 37 32 31 55 20 19 69 41 109 91 72 103 119 202 145 221 256 236 283 334 10 11 5 341 315 277 268 270 271 274 280 277 267 274 288 282 277 271
32 26 356 357 359 19 53 71 51 47 92 50 14 26 104 88 162 310 37 2 11 99 137 108 67 200 95 51 350 203 190 240 269 304 303 275 275 288 287 296 291 287 282 281 282 284 281 289 288 275 268 275 275 272
37 7 4 357 359 36 46 40 76 67 59 355 70 335 55 39 32 2 11 1 25 96 84 164 121 68 127 135 295 261 273 266 251 263 276 289 275 282 285 279 286 279 277 280 282 284 284 279 267 265 266 273 275 273
26 11 7 5 27 77 66 31 37 93 152 348 15 3 38 64 70 12 9 356 28 85 102 43 62 83 344 223 240 272 268 238 273 295 284 283 279 278 283 284 282 280 274 272 272 269 267 265 261 266 265 263 257 263
352 8 20 27 51 77 58 10 31 83 91 275 32 16 24 39 330 6 341 8 30 60 38 48 78 73 224 254 244 280 280 272 269 292 287 273 267 273 270 270 274 274 273 273 271 275 272 271 265 259 257 254 252 257
1 4 14 35 53 60 86 10 43 99 153 84 301 23 315 6 26 11 348 336 56 60 56 14 260 258 287 277 282 276 272 254 243 227 278 292 294 282 277 273 269 265 263 270 269 271 277 267 271 269 264 261 259 259
6 10 32 35 71 53 77 16 111 13 67 163 41 23 31 25 346 335 304 45 68 246 203 253 270 285 305 289 293 292 288 292 285 270 278 283 285 286 281 275 273 272 268 264 263 263 266 266 268 265 259 259 263 258
18 28 52 25 68 42 293 1 66 1 75 325 18 42 8 351 255 321 60 217 251 249 255 277 301 306 278 299 305 304 306 287 274 273 275 276 273 273 274 275 269 265 269 271 265 262 264 272 275 276 271 269 263 257
28 49 46 47 42 117 358 20 31 44 42 30 42 17 344 296 326 48 66 295 270 314 323 301 312 312 311 288 284 294 300 297 283 282 278 275 276 280 277 273 275 271 267 273 275 272 270 268 274 272 268 263 257 251
64 347 50 357 339 45 32 13 355 42 49 338 57 357 327 353 59 47 334 290 310 290 297 319 320 309 300 297 299 304 310 303 295 297 297 289 281 284 283 278 274 273 285 275 274 272 271 271 269 267 264 257 253 251
67 312 71 307 332 71 334 50 31 2 76 34 338 272 6 69 57 8 326 305 304 312 326 322 316 311 303 297 301 307 309 310 302 289 291 295 286 282 286 290 294 297 302 289 282 284 286 287 282 291 289 269 260 210
55 330 327 18 299 94 61 38 45 83 57 30 307 350 35 61 13 311 323 331 315 318 313 307 301 293 291 300 304 306 308 310 300 293 302 306 310 311 301 291 292 293 307 309 298 298 296 302 319 30 62 71 88 181
150 18 64 317 45 11 120 61 57 68 277 296 307 24 88 99 327 326 300 325 324 323 322 325 329 317 304 304 307 309 313 321 330 335 338 339 353 349 349 341 333 324 333 342 332 334 30 116 112 102 94 82 81 103
41 341 25 16 19 42 59 106 167 17 360 46 104 34 28 19 354 349 329 334 341 334 330 332 332 337 335 333 334 336 336 331 327 335 337 333 334 334 349 350 358 19 26 6 33 68 102 112 112 107 99 91 90 98
328 348 69 44 77 26 259 149 240 271 279 319 296 293 258 296 353 347 359 350 345 337 327 321 322 329 327 335 334 336 348 345 345 338 318 327 328 339 358 9 20 30 40 55 66 77 85 99 98 98 96 90 89 87
336 17 64 49 124 247 241 301 290 261 26 350 335 185 280 316 321 348 4 356 346 344 340 345 340 343 339 337 336 330 330 344 349 359 4 3 10 16 24 36 50 62 68 76 84 86 87 85 85 87 88 91 96 95
1 62 108 65 296 298 13 49 7 40 335 28 329 340 321 315 335 346 3 2 356 352 347 346 338 327 347 348 348 338 335 355 2 10 21 26 33 41 51 60 68 75 79 79 79 80 81 82 84 86 88 89 91 94
32 36 28 54 15 9 337 38 19 354 22 22 334 320 258 320 282 318 358 6 359 344 336 338 343 347 354 358 358 3 11 16 17 27 42 44 47 52 64 74 81 85 84 78 77 81 82 83 81 83 83 84 86 90